Time,TemperatureF,DewpointF,PressureIn,WindDirection,WindDirectionDegrees,WindSpeedMPH,WindSpeedGustMPH,Humidity,HourlyPrecipIn,Conditions,Clouds,dailyrainin,SolarRadiationWatts/m^2,SoftwareType,DateUTC
2013-01-10 00:00:00,30.8,28.5,30.50,West,273,0.0,0.0,91,0.00,CLR,,0.04,0.0,WeatherDisplay:10.37,2013-01-10 05:00:00,
2013-01-10 00:01:00,30.8,28.8,30.51,West,273,0.0,0.0,92,0.00,RA,,0.00,0.0,WeatherDisplay:10.37,2013-01-10 05:01:00,
2013-01-10 00:03:00,30.7,28.4,30.51,West,273,0.0,0.0,91,0.00,RA,,0.00,0.0,WeatherDisplay:10.37,2013-01-10 05:03:00,
2013-01-10 00:08:00,30.5,28.2,30.51,West,273,0.0,0.0,91,0.00,RA,,0.00,0.0,WeatherDisplay:10.37,2013-01-10 05:08:00,
2013-01-10 00:13:00,30.3,28.3,30.51,West,273,0.0,0.0,92,0.00,CLR,,0.00,0.0,WeatherDisplay:10.37,2013-01-10 05:13:00,
2013-01-10 00:18:00,30.2,28.2,30.51,West,273,0.0,0.0,92,0.00,CLR,,0.00,0.0,WeatherDisplay:10.37,2013-01-10 05:18:00,
2013-01-10 00:23:00,30.2,28.2,30.51,West,273,0.0,0.0,92,0.00,CLR,,0.00,0.0,WeatherDisplay:10.37,2013-01-10 05:23:00,
2013-01-10 00:28:00,30.0,28.0,30.51,West,273,0.0,0.0,92,0.00,CLR,,0.00,0.0,WeatherDisplay:10.37,2013-01-10 05:28:00,
2013-01-10 00:33:00,30.0,28.0,30.51,West,273,0.0,0.0,92,0.00,CLR,,0.00,0.0,WeatherDisplay:10.37,2013-01-10 05:33:00,
2013-01-10 00:38:00,29.9,27.9,30.51,West,273,0.0,0.0,92,0.00,CLR,,0.00,0.0,WeatherDisplay:10.37,2013-01-10 05:38:00,
2013-01-10 00:43:00,29.8,27.8,30.52,West,273,0.0,0.0,92,0.00,CLR,,0.00,0.0,WeatherDisplay:10.37,2013-01-10 05:43:00,
2013-01-10 00:48:00,29.6,27.8,30.52,West,273,0.0,0.0,93,0.00,CLR,,0.00,0.0,WeatherDisplay:10.37,2013-01-10 05:48:00,
2013-01-10 00:53:00,29.5,27.7,30.51,West,273,0.0,0.0,93,0.00,CLR,,0.00,0.0,WeatherDisplay:10.37,2013-01-10 05:53:00,
2013-01-10 00:58:00,29.4,27.6,30.51,West,273,0.0,0.0,93,0.00,CLR,,0.00,0.0,WeatherDisplay:10.37,2013-01-10 05:58:00,
2013-01-10 01:03:00,29.3,27.5,30.51,West,273,0.0,0.0,93,0.00,CLR,,0.00,0.0,WeatherDisplay:10.37,2013-01-10 06:03:00,
2013-01-10 01:08:00,29.1,27.3,30.51,West,273,0.0,0.0,93,0.00,CLR,,0.00,0.0,WeatherDisplay:10.37,2013-01-10 06:08:00,
2013-01-10 01:13:00,29.0,27.2,30.51,West,273,0.0,0.0,93,0.00,CLR,,0.00,0.0,WeatherDisplay:10.37,2013-01-10 06:13:00,
2013-01-10 01:18:00,29.0,27.2,30.51,West,273,0.0,0.0,93,0.00,,,0.00,0.0,WeatherDisplay:10.37,2013-01-10 06:18:00,
2013-01-10 01:23:00,28.9,27.1,30.51,West,273,0.0,0.0,93,0.00,,,0.00,0.0,WeatherDisplay:10.37,2013-01-10 06:23:00,
2013-01-10 01:28:00,28.9,27.1,30.51,West,273,0.0,0.0,93,0.00,,,0.00,0.0,WeatherDisplay:10.37,2013-01-10 06:28:00,
2013-01-10 01:33:00,28.9,27.1,30.51,West,273,0.0,0.0,93,0.00,,,0.00,0.0,WeatherDisplay:10.37,2013-01-10 06:33:00,
2013-01-10 01:38:00,28.9,27.4,30.51,West,273,0.0,0.0,94,0.00,,,0.00,0.0,WeatherDisplay:10.37,2013-01-10 06:38:00,
2013-01-10 01:43:00,28.8,27.0,30.51,West,273,0.0,0.0,93,0.00,,,0.00,0.0,WeatherDisplay:10.37,2013-01-10 06:43:00,
2013-01-10 01:48:00,28.7,27.2,30.51,West,273,0.6,1.1,94,0.00,,,0.00,0.0,WeatherDisplay:10.37,2013-01-10 06:48:00,
2013-01-10 01:53:00,28.8,27.3,30.50,West,273,0.0,0.0,94,0.00,,,0.00,0.0,WeatherDisplay:10.37,2013-01-10 06:53:00,
2013-01-10 01:58:00,28.8,27.3,30.50,West,273,0.0,0.0,94,0.00,,,0.00,0.0,WeatherDisplay:10.37,2013-01-10 06:58:00,
2013-01-10 02:03:00,28.8,27.3,30.50,West,273,0.0,0.0,94,0.00,,,0.00,0.0,WeatherDisplay:10.37,2013-01-10 07:03:00,
2013-01-10 02:08:00,28.8,27.3,30.50,West,273,0.0,0.0,94,0.00,,,0.00,0.0,WeatherDisplay:10.37,2013-01-10 07:08:00,
2013-01-10 02:13:00,28.8,27.3,30.51,West,273,0.0,0.0,94,0.00,,,0.00,0.0,WeatherDisplay:10.37,2013-01-10 07:13:00,
2013-01-10 02:18:00,28.7,27.2,30.51,West,273,0.0,0.0,94,0.00,,,0.00,0.0,WeatherDisplay:10.37,2013-01-10 07:18:00,
2013-01-10 02:23:00,28.7,27.2,30.51,West,273,0.0,0.0,94,0.00,,,0.00,0.0,WeatherDisplay:10.37,2013-01-10 07:23:00,
2013-01-10 02:28:00,28.6,27.1,30.51,West,273,0.0,0.0,94,0.00,,,0.00,0.0,WeatherDisplay:10.37,2013-01-10 07:28:00,
2013-01-10 02:33:00,28.6,27.1,30.52,West,273,0.0,0.0,94,0.00,,,0.00,0.0,WeatherDisplay:10.37,2013-01-10 07:33:00,
2013-01-10 02:38:00,28.7,27.2,30.52,West,273,0.0,0.0,94,0.00,,,0.00,0.0,WeatherDisplay:10.37,2013-01-10 07:38:00,
2013-01-10 02:43:00,28.6,27.1,30.52,West,273,0.0,0.0,94,0.00,,,0.00,0.0,WeatherDisplay:10.37,2013-01-10 07:43:00,
2013-01-10 02:48:00,28.6,27.1,30.52,West,273,0.0,0.0,94,0.00,,,0.00,0.0,WeatherDisplay:10.37,2013-01-10 07:48:00,
2013-01-10 02:53:00,28.5,27.0,30.52,West,273,0.0,0.0,94,0.00,,,0.00,0.0,WeatherDisplay:10.37,2013-01-10 07:53:00,
2013-01-10 02:58:00,28.5,27.0,30.52,West,273,0.0,0.0,94,0.00,,,0.00,0.0,WeatherDisplay:10.37,2013-01-10 07:58:00,
2013-01-10 03:03:00,28.6,27.1,30.52,West,273,0.0,0.0,94,0.00,,,0.00,0.0,WeatherDisplay:10.37,2013-01-10 08:03:00,
2013-01-10 03:08:00,28.5,27.0,30.52,West,273,0.0,0.0,94,0.00,,,0.00,0.0,WeatherDisplay:10.37,2013-01-10 08:08:00,
2013-01-10 03:13:00,28.4,26.9,30.52,West,273,0.0,0.0,94,0.00,,,0.00,0.0,WeatherDisplay:10.37,2013-01-10 08:13:00,
2013-01-10 03:18:00,28.4,26.9,30.52,West,273,0.0,0.0,94,0.00,,,0.00,0.0,WeatherDisplay:10.37,2013-01-10 08:18:00,
2013-01-10 03:23:00,28.4,26.9,30.52,West,273,0.0,1.1,94,0.00,,,0.00,0.0,WeatherDisplay:10.37,2013-01-10 08:23:00,
2013-01-10 03:28:00,28.2,26.7,30.52,West,273,0.0,0.0,94,0.00,,,0.00,0.0,WeatherDisplay:10.37,2013-01-10 08:28:00,
2013-01-10 03:34:00,28.2,26.7,30.52,West,273,0.0,0.0,94,0.00,,,0.00,0.0,WeatherDisplay:10.37,2013-01-10 08:34:00,
2013-01-10 03:39:00,28.0,26.5,30.52,West,273,0.0,0.0,94,0.00,,,0.00,0.0,WeatherDisplay:10.37,2013-01-10 08:39:00,
2013-01-10 03:44:00,27.9,26.4,30.52,West,273,0.0,0.0,94,0.00,,,0.00,0.0,WeatherDisplay:10.37,2013-01-10 08:44:00,
2013-01-10 03:49:00,27.6,26.1,30.52,West,273,0.0,0.0,94,0.00,,,0.00,0.0,WeatherDisplay:10.37,2013-01-10 08:49:00,
2013-01-10 03:54:00,27.5,26.0,30.51,West,273,0.0,0.0,94,0.00,,,0.00,0.0,WeatherDisplay:10.37,2013-01-10 08:54:00,
2013-01-10 03:59:00,27.2,25.7,30.51,West,273,0.0,0.0,94,0.00,,,0.00,0.0,WeatherDisplay:10.37,2013-01-10 08:59:00,
2013-01-10 04:04:00,27.1,25.6,30.51,West,273,0.0,0.0,94,0.00,,,0.00,0.0,WeatherDisplay:10.37,2013-01-10 09:04:00,
2013-01-10 04:09:00,27.1,25.6,30.50,West,273,0.0,0.0,94,0.00,,,0.00,0.0,WeatherDisplay:10.37,2013-01-10 09:09:00,
2013-01-10 04:14:00,27.0,25.5,30.50,West,273,0.0,0.0,94,0.00,,,0.00,0.0,WeatherDisplay:10.37,2013-01-10 09:14:00,
2013-01-10 04:19:00,26.9,25.4,30.51,West,273,0.0,0.0,94,0.00,,,0.00,0.0,WeatherDisplay:10.37,2013-01-10 09:19:00,
2013-01-10 04:24:00,26.7,25.2,30.50,West,273,0.1,1.1,94,0.00,,,0.00,0.0,WeatherDisplay:10.37,2013-01-10 09:24:00,
2013-01-10 04:29:00,26.7,25.2,30.50,West,273,0.0,0.0,94,0.00,,,0.00,0.0,WeatherDisplay:10.37,2013-01-10 09:29:00,
2013-01-10 04:34:00,26.7,25.2,30.50,West,273,0.0,0.0,94,0.00,,,0.00,0.0,WeatherDisplay:10.37,2013-01-10 09:34:00,
2013-01-10 04:39:00,26.7,25.5,30.50,West,273,0.0,0.0,95,0.00,,,0.00,0.0,WeatherDisplay:10.37,2013-01-10 09:39:00,
2013-01-10 04:44:00,26.8,25.6,30.49,West,273,0.0,0.0,95,0.00,,,0.00,0.0,WeatherDisplay:10.37,2013-01-10 09:44:00,
2013-01-10 04:49:00,26.6,25.1,30.49,West,273,0.0,0.0,94,0.00,,,0.00,0.0,WeatherDisplay:10.37,2013-01-10 09:49:00,
2013-01-10 04:54:00,26.5,25.0,30.49,West,273,0.0,0.0,94,0.00,,,0.00,0.0,WeatherDisplay:10.37,2013-01-10 09:54:00,
2013-01-10 04:59:00,26.5,25.0,30.49,West,273,0.0,0.0,94,0.00,,,0.00,0.0,WeatherDisplay:10.37,2013-01-10 09:59:00,
2013-01-10 05:04:00,26.3,24.8,30.49,West,273,0.0,0.0,94,0.00,,,0.00,0.0,WeatherDisplay:10.37,2013-01-10 10:04:00,
2013-01-10 05:09:00,26.3,25.1,30.49,West,273,0.0,0.0,95,0.00,,,0.00,0.0,WeatherDisplay:10.37,2013-01-10 10:09:00,
2013-01-10 05:14:00,26.2,24.7,30.49,West,273,0.0,0.0,94,0.00,,,0.00,0.0,WeatherDisplay:10.37,2013-01-10 10:14:00,
2013-01-10 05:19:00,26.1,24.6,30.49,West,273,0.0,0.0,94,0.00,,,0.00,0.0,WeatherDisplay:10.37,2013-01-10 10:19:00,
2013-01-10 05:24:00,26.0,24.5,30.49,West,273,0.0,0.0,94,0.00,,,0.00,0.0,WeatherDisplay:10.37,2013-01-10 10:24:00,
2013-01-10 05:29:00,26.0,24.8,30.49,West,273,0.0,0.0,95,0.00,,,0.00,0.0,WeatherDisplay:10.37,2013-01-10 10:29:00,
2013-01-10 05:34:00,26.0,24.8,30.49,West,273,0.0,0.0,95,0.00,,,0.00,0.0,WeatherDisplay:10.37,2013-01-10 10:34:00,
2013-01-10 05:39:00,25.8,24.6,30.49,West,273,0.0,0.0,95,0.00,,,0.00,0.0,WeatherDisplay:10.37,2013-01-10 10:39:00,
2013-01-10 05:44:00,25.9,24.7,30.49,West,273,0.0,0.0,95,0.00,,,0.00,0.0,WeatherDisplay:10.37,2013-01-10 10:44:00,
2013-01-10 05:49:00,25.9,24.7,30.49,West,273,0.0,0.0,95,0.00,,,0.00,0.0,WeatherDisplay:10.37,2013-01-10 10:49:00,
2013-01-10 05:54:00,25.8,24.6,30.49,West,273,0.0,0.0,95,0.00,,,0.00,0.0,WeatherDisplay:10.37,2013-01-10 10:54:00,
2013-01-10 05:59:00,25.8,24.6,30.49,West,273,0.0,0.0,95,0.00,,,0.00,0.0,WeatherDisplay:10.37,2013-01-10 10:59:00,
2013-01-10 06:04:00,25.9,24.7,30.49,West,273,0.0,0.0,95,0.00,,,0.00,0.0,WeatherDisplay:10.37,2013-01-10 11:04:00,
2013-01-10 06:09:00,25.9,24.7,30.49,West,273,0.0,0.0,95,0.00,,,0.00,0.0,WeatherDisplay:10.37,2013-01-10 11:09:00,
2013-01-10 06:14:00,26.0,24.8,30.49,West,273,0.0,0.0,95,0.00,,,0.00,0.0,WeatherDisplay:10.37,2013-01-10 11:14:00,
2013-01-10 06:19:00,26.1,24.9,30.49,West,273,0.0,0.0,95,0.00,,,0.00,0.0,WeatherDisplay:10.37,2013-01-10 11:19:00,
2013-01-10 06:24:00,26.1,24.9,30.50,West,273,0.0,0.0,95,0.00,,,0.00,0.0,WeatherDisplay:10.37,2013-01-10 11:24:00,
2013-01-10 06:29:00,26.2,25.0,30.50,West,273,0.0,0.0,95,0.00,,,0.00,0.0,WeatherDisplay:10.37,2013-01-10 11:29:00,
2013-01-10 06:34:00,26.2,25.2,30.50,West,273,0.0,0.0,96,0.00,,,0.00,0.0,WeatherDisplay:10.37,2013-01-10 11:34:00,
2013-01-10 06:39:00,26.2,25.2,30.50,West,273,0.0,0.0,96,0.00,,,0.00,0.0,WeatherDisplay:10.37,2013-01-10 11:39:00,
2013-01-10 06:44:00,26.2,25.0,30.50,West,273,0.0,0.0,95,0.00,,,0.00,0.0,WeatherDisplay:10.37,2013-01-10 11:44:00,
2013-01-10 06:49:00,26.2,25.0,30.50,West,273,0.0,0.0,95,0.00,,,0.00,0.0,WeatherDisplay:10.37,2013-01-10 11:49:00,
2013-01-10 06:54:00,26.2,25.2,30.50,West,273,0.0,0.0,96,0.00,,,0.00,0.0,WeatherDisplay:10.37,2013-01-10 11:54:00,
2013-01-10 06:59:00,26.1,25.1,30.51,West,273,0.0,0.0,96,0.00,,,0.00,0.0,WeatherDisplay:10.37,2013-01-10 11:59:00,
2013-01-10 07:04:00,26.1,24.9,30.50,West,273,0.0,1.0,95,0.00,,,0.00,0.0,WeatherDisplay:10.37,2013-01-10 12:04:00,
2013-01-10 07:09:00,26.1,24.9,30.50,West,273,0.0,0.0,95,0.00,,,0.00,0.0,WeatherDisplay:10.37,2013-01-10 12:09:00,
2013-01-10 07:14:00,26.0,24.8,30.50,West,273,0.0,0.0,95,0.00,,,0.00,0.0,WeatherDisplay:10.37,2013-01-10 12:14:00,
2013-01-10 07:19:00,26.1,24.9,30.50,West,273,0.0,0.0,95,0.00,,,0.00,0.0,WeatherDisplay:10.37,2013-01-10 12:19:00,
2013-01-10 07:24:00,26.1,24.9,30.50,West,273,0.0,0.0,95,0.00,,,0.00,0.0,WeatherDisplay:10.37,2013-01-10 12:24:00,
2013-01-10 07:29:00,26.1,24.9,30.50,West,273,0.0,0.0,95,0.00,,,0.00,0.0,WeatherDisplay:10.37,2013-01-10 12:29:00,
2013-01-10 07:34:00,26.1,24.9,30.50,West,273,0.0,0.0,95,0.00,,,0.00,0.0,WeatherDisplay:10.37,2013-01-10 12:34:00,
2013-01-10 07:39:00,26.0,24.8,30.50,West,273,0.0,0.0,95,0.00,,,0.00,0.0,WeatherDisplay:10.37,2013-01-10 12:39:00,
2013-01-10 07:44:00,26.1,25.1,30.50,West,273,0.0,0.0,96,0.00,OVC,,0.00,0.0,WeatherDisplay:10.37,2013-01-10 12:44:00,
2013-01-10 07:49:00,26.1,25.1,30.50,West,273,0.0,0.0,96,0.00,,,0.00,0.0,WeatherDisplay:10.37,2013-01-10 12:49:00,
2013-01-10 07:54:00,26.1,25.1,30.50,West,273,0.0,0.0,96,0.00,,,0.00,0.0,WeatherDisplay:10.37,2013-01-10 12:54:00,
2013-01-10 07:59:00,26.2,25.2,30.50,West,273,0.1,1.1,96,0.00,,,0.00,0.0,WeatherDisplay:10.37,2013-01-10 12:59:00,
2013-01-10 08:04:00,26.4,25.4,30.51,West,273,0.0,0.0,96,0.00,,,0.00,0.0,WeatherDisplay:10.37,2013-01-10 13:04:00,
2013-01-10 08:09:00,26.7,25.7,30.51,West,273,0.0,1.1,96,0.00,BKN,,0.00,5.0,WeatherDisplay:10.37,2013-01-10 13:09:00,
2013-01-10 08:14:00,26.9,25.9,30.51,West,273,0.0,0.0,96,0.00,BKN,,0.00,7.0,WeatherDisplay:10.37,2013-01-10 13:14:00,
2013-01-10 08:19:00,27.0,26.0,30.51,West,273,0.0,0.0,96,0.00,BKN,,0.00,12.0,WeatherDisplay:10.37,2013-01-10 13:19:00,
2013-01-10 08:24:00,27.2,26.2,30.51,West,273,0.2,1.1,96,0.00,BKN,,0.00,14.0,WeatherDisplay:10.37,2013-01-10 13:24:00,
2013-01-10 08:29:00,27.4,26.4,30.51,West,273,0.0,1.1,96,0.00,BKN,,0.00,16.0,WeatherDisplay:10.37,2013-01-10 13:29:00,
2013-01-10 08:34:00,27.6,26.6,30.51,West,273,0.2,1.1,96,0.00,BKN,,0.00,21.0,WeatherDisplay:10.37,2013-01-10 13:34:00,
2013-01-10 08:39:00,27.8,26.8,30.51,West,273,0.0,0.0,96,0.00,BKN,,0.00,23.0,WeatherDisplay:10.37,2013-01-10 13:39:00,
2013-01-10 08:44:00,28.0,27.0,30.51,West,273,0.6,2.3,96,0.00,BKN,,0.00,25.0,WeatherDisplay:10.37,2013-01-10 13:44:00,
2013-01-10 08:49:00,28.3,27.3,30.51,West,273,1.6,3.5,96,0.00,BKN,,0.00,30.0,WeatherDisplay:10.37,2013-01-10 13:49:00,
2013-01-10 08:54:00,28.8,28.1,30.50,ESE,107,2.0,3.5,97,0.00,SCT,,0.00,42.0,WeatherDisplay:10.37,2013-01-10 13:54:00,
2013-01-10 08:59:00,29.3,28.6,30.50,ESE,107,2.3,3.5,97,0.00,SCT,,0.00,49.0,WeatherDisplay:10.37,2013-01-10 13:59:00,
2013-01-10 09:04:00,29.9,29.2,30.50,ESE,107,1.7,3.5,97,0.00,SCT,,0.00,56.0,WeatherDisplay:10.37,2013-01-10 14:04:00,
2013-01-10 09:09:00,30.3,29.6,30.49,ESE,107,2.1,3.5,97,0.00,SCT,,0.00,51.0,WeatherDisplay:10.37,2013-01-10 14:09:00,
2013-01-10 09:14:00,30.5,29.8,30.49,ESE,107,0.4,2.3,97,0.00,SCT,,0.00,51.0,WeatherDisplay:10.37,2013-01-10 14:14:00,
2013-01-10 09:20:00,30.8,30.0,30.50,ESE,108,1.1,3.0,97,0.00,SCT,,0.00,62.0,WeatherDisplay:10.37,2013-01-10 14:20:00,
2013-01-10 09:25:00,31.0,30.2,30.50,ESE,109,2.0,3.5,97,0.00,SCT,,0.00,53.0,WeatherDisplay:10.37,2013-01-10 14:25:00,
2013-01-10 09:30:00,31.2,30.4,30.49,ESE,109,0.7,2.3,97,0.00,BKN,,0.00,44.0,WeatherDisplay:10.37,2013-01-10 14:30:00,
2013-01-10 09:35:00,31.5,30.7,30.50,ESE,108,1.5,3.5,97,0.00,BKN,,0.00,39.0,WeatherDisplay:10.37,2013-01-10 14:35:00,
2013-01-10 09:40:00,31.7,30.7,30.50,ESE,108,1.4,3.5,96,0.00,BKN,,0.00,39.0,WeatherDisplay:10.37,2013-01-10 14:40:00,
2013-01-10 09:45:00,32.0,31.0,30.50,ESE,108,2.3,3.5,96,0.00,BKN,,0.00,37.0,WeatherDisplay:10.37,2013-01-10 14:45:00,
2013-01-10 09:50:00,32.2,31.2,30.50,ESE,106,2.0,3.5,96,0.00,BKN,,0.00,35.0,WeatherDisplay:10.37,2013-01-10 14:50:00,
2013-01-10 09:55:00,32.5,31.5,30.50,ESE,103,3.3,4.0,96,0.00,BKN,,0.00,39.0,WeatherDisplay:10.37,2013-01-10 14:55:00,
2013-01-10 10:00:00,32.8,31.8,30.50,ESE,106,2.8,5.0,96,0.00,BKN,,0.00,42.0,WeatherDisplay:10.37,2013-01-10 15:00:00,
2013-01-10 10:05:00,33.2,31.9,30.50,ESE,102,3.7,4.6,95,0.00,BKN,,0.00,47.0,WeatherDisplay:10.37,2013-01-10 15:05:00,
2013-01-10 10:10:00,33.5,32.0,30.50,East,94,4.8,4.8,94,0.00,BKN,,0.00,46.0,WeatherDisplay:10.37,2013-01-10 15:10:00,
2013-01-10 10:15:00,34.0,31.9,30.50,East,97,4.6,5.8,92,0.00,BKN,,0.00,40.0,WeatherDisplay:10.37,2013-01-10 15:15:00,
2013-01-10 10:20:00,34.4,32.0,30.50,East,94,5.4,5.8,91,0.00,BKN,,0.00,35.0,WeatherDisplay:10.37,2013-01-10 15:20:00,
2013-01-10 10:25:00,34.8,31.9,30.49,East,90,3.9,8.0,89,0.00,BKN,,0.00,40.0,WeatherDisplay:10.37,2013-01-10 15:25:00,
2013-01-10 10:30:00,35.1,31.9,30.50,East,90,2.2,6.0,88,0.00,BKN,,0.00,51.0,WeatherDisplay:10.37,2013-01-10 15:30:00,
2013-01-10 10:35:00,35.3,31.8,30.50,ESE,121,3.9,6.9,87,0.00,BKN,,0.00,49.0,WeatherDisplay:10.37,2013-01-10 15:35:00,
2013-01-10 10:40:00,35.6,31.8,30.50,ESE,111,4.9,6.9,86,0.00,BKN,,0.00,54.0,WeatherDisplay:10.37,2013-01-10 15:40:00,
2013-01-10 10:45:00,35.8,31.7,30.50,ESE,110,3.7,8.1,85,0.00,BKN,,0.00,74.0,WeatherDisplay:10.37,2013-01-10 15:45:00,
2013-01-10 10:50:00,36.0,31.9,30.50,East,92,2.3,4.6,85,0.00,BKN,,0.00,72.0,WeatherDisplay:10.37,2013-01-10 15:50:00,
2013-01-10 10:55:00,36.1,32.0,30.50,ESE,115,3.5,5.8,85,0.00,BKN,,0.00,67.0,WeatherDisplay:10.37,2013-01-10 15:55:00,
2013-01-10 11:00:00,36.3,32.2,30.50,ESE,103,5.0,6.9,85,0.00,BKN,,0.00,63.0,WeatherDisplay:10.37,2013-01-10 16:00:00,
2013-01-10 11:05:00,36.4,32.0,30.50,East,101,3.2,6.0,84,0.00,BKN,,0.00,65.0,WeatherDisplay:10.37,2013-01-10 16:05:00,
2013-01-10 11:10:00,36.5,32.4,30.50,ESE,103,1.9,2.3,85,0.00,BKN,,0.00,84.0,WeatherDisplay:10.37,2013-01-10 16:10:00,
2013-01-10 11:15:00,36.6,32.5,30.50,ESE,105,2.5,3.5,85,0.00,BKN,,0.00,86.0,WeatherDisplay:10.37,2013-01-10 16:15:00,
2013-01-10 11:20:00,36.7,32.3,30.49,ESE,102,3.6,4.6,84,0.00,BKN,,0.00,86.0,WeatherDisplay:10.37,2013-01-10 16:20:00,
2013-01-10 11:25:00,36.8,32.4,30.49,East,97,3.3,5.0,84,0.00,BKN,,0.00,91.0,WeatherDisplay:10.37,2013-01-10 16:25:00,
2013-01-10 11:30:00,36.9,32.5,30.49,ESE,102,3.1,5.0,84,0.00,BKN,,0.00,107.0,WeatherDisplay:10.37,2013-01-10 16:30:00,
2013-01-10 11:35:00,37.0,32.6,30.48,East,101,3.3,5.0,84,0.00,BKN,,0.00,116.0,WeatherDisplay:10.37,2013-01-10 16:35:00,
2013-01-10 11:40:00,37.2,32.8,30.47,ESE,109,5.6,8.1,84,0.00,BKN,,0.00,90.0,WeatherDisplay:10.37,2013-01-10 16:40:00,
2013-01-10 11:45:00,37.3,32.6,30.47,ESE,109,1.9,3.5,83,0.00,BKN,,0.00,84.0,WeatherDisplay:10.37,2013-01-10 16:45:00,
2013-01-10 11:50:00,37.4,32.7,30.47,East,94,3.4,5.8,83,0.00,BKN,,0.00,90.0,WeatherDisplay:10.37,2013-01-10 16:50:00,
2013-01-10 11:55:00,37.6,32.9,30.46,East,80,3.9,7.0,83,0.00,BKN,,0.00,86.0,WeatherDisplay:10.37,2013-01-10 16:55:00,
2013-01-10 12:00:00,37.6,32.9,30.46,East,98,2.5,4.6,83,0.00,BKN,,0.00,79.0,WeatherDisplay:10.37,2013-01-10 17:00:00,
2013-01-10 12:05:00,37.7,33.0,30.45,East,95,4.9,5.8,83,0.00,BKN,,0.00,70.0,WeatherDisplay:10.37,2013-01-10 17:05:00,
2013-01-10 12:10:00,37.9,32.9,30.44,ENE,78,5.0,6.9,82,0.00,BKN,,0.00,70.0,WeatherDisplay:10.37,2013-01-10 17:10:00,
2013-01-10 12:15:00,38.1,33.1,30.42,ESE,105,6.7,9.2,82,0.00,BKN,,0.00,67.0,WeatherDisplay:10.37,2013-01-10 17:15:00,
2013-01-10 12:20:00,38.4,33.1,30.42,East,93,7.4,11.5,81,0.00,BKN,,0.00,62.0,WeatherDisplay:10.37,2013-01-10 17:20:00,
2013-01-10 12:25:00,38.6,33.0,30.42,East,84,6.0,9.2,80,0.00,BKN,,0.00,56.0,WeatherDisplay:10.37,2013-01-10 17:25:00,
2013-01-10 12:30:00,38.8,33.2,30.42,ESE,107,3.5,6.9,80,0.00,BKN,,0.00,47.0,WeatherDisplay:10.37,2013-01-10 17:30:00,
2013-01-10 12:35:00,38.9,32.9,30.42,East,85,5.9,11.0,79,0.00,BKN,,0.00,49.0,WeatherDisplay:10.37,2013-01-10 17:35:00,
2013-01-10 12:40:00,39.0,33.0,30.43,East,98,6.2,9.2,79,0.00,BKN,,0.00,53.0,WeatherDisplay:10.37,2013-01-10 17:40:00,
2013-01-10 12:45:00,39.1,33.1,30.42,East,98,4.3,8.1,79,0.00,BKN,,0.00,74.0,WeatherDisplay:10.37,2013-01-10 17:45:00,
2013-01-10 12:50:00,39.2,33.2,30.42,ESE,107,3.1,5.0,79,0.00,BKN,,0.00,93.0,WeatherDisplay:10.37,2013-01-10 17:50:00,
2013-01-10 12:55:00,39.3,33.3,30.41,East,97,4.4,6.9,79,0.00,BKN,,0.00,97.0,WeatherDisplay:10.37,2013-01-10 17:55:00,
2013-01-10 13:00:00,39.5,33.5,30.41,East,85,4.5,9.2,79,0.00,BKN,,0.00,98.0,WeatherDisplay:10.37,2013-01-10 18:00:00,
2013-01-10 13:05:00,39.7,33.7,30.41,East,90,4.0,6.0,79,0.00,BKN,,0.00,111.0,WeatherDisplay:10.37,2013-01-10 18:05:00,
2013-01-10 13:10:00,39.9,33.9,30.40,ESE,111,6.6,9.2,79,0.00,BKN,,0.00,127.0,WeatherDisplay:10.37,2013-01-10 18:10:00,
2013-01-10 13:15:00,40.1,33.8,30.40,East,96,5.4,8.1,78,0.00,BKN,,0.00,116.0,WeatherDisplay:10.37,2013-01-10 18:15:00,
2013-01-10 13:20:00,40.3,34.0,30.40,ESE,109,4.6,5.8,78,0.00,BKN,,0.00,100.0,WeatherDisplay:10.37,2013-01-10 18:20:00,
2013-01-10 13:25:00,40.5,34.2,30.40,ESE,123,4.9,9.2,78,0.00,BKN,,0.00,105.0,WeatherDisplay:10.37,2013-01-10 18:25:00,
2013-01-10 13:30:00,40.7,34.0,30.39,SSE,152,4.9,9.2,77,0.00,BKN,,0.00,105.0,WeatherDisplay:10.37,2013-01-10 18:30:00,
2013-01-10 13:35:00,40.7,34.0,30.39,ESE,103,3.2,6.9,77,0.00,BKN,,0.00,98.0,WeatherDisplay:10.37,2013-01-10 18:35:00,
2013-01-10 13:40:00,40.8,34.1,30.38,ESE,109,5.1,9.2,77,0.00,BKN,,0.00,93.0,WeatherDisplay:10.37,2013-01-10 18:40:00,
2013-01-10 13:45:00,40.9,34.2,30.38,SE,126,3.9,4.6,77,0.00,BKN,,0.00,90.0,WeatherDisplay:10.37,2013-01-10 18:45:00,
2013-01-10 13:50:00,41.0,34.3,30.38,ESE,107,4.5,8.1,77,0.00,BKN,,0.00,100.0,WeatherDisplay:10.37,2013-01-10 18:50:00,
2013-01-10 13:55:00,41.0,34.3,30.39,East,101,3.7,4.6,77,0.00,BKN,,0.00,109.0,WeatherDisplay:10.37,2013-01-10 18:55:00,
2013-01-10 14:00:00,41.1,34.4,30.38,ESE,117,2.8,5.0,77,0.00,BKN,,0.00,105.0,WeatherDisplay:10.37,2013-01-10 19:00:00,
2013-01-10 14:05:00,41.3,34.6,30.38,ESE,117,2.8,6.9,77,0.00,BKN,,0.00,105.0,WeatherDisplay:10.37,2013-01-10 19:05:00,
2013-01-10 14:10:00,41.4,34.4,30.38,ENE,77,3.7,9.0,76,0.00,BKN,,0.00,121.0,WeatherDisplay:10.37,2013-01-10 19:10:00,
2013-01-10 14:15:00,41.5,34.8,30.37,East,96,6.3,10.0,77,0.00,BKN,,0.00,111.0,WeatherDisplay:10.37,2013-01-10 19:15:00,
2013-01-10 14:20:00,41.6,34.9,30.37,ESE,111,6.4,9.2,77,0.00,BKN,,0.00,90.0,WeatherDisplay:10.37,2013-01-10 19:20:00,
2013-01-10 14:25:00,41.6,34.9,30.37,ENE,72,6.7,11.5,77,0.00,BKN,,0.00,91.0,WeatherDisplay:10.37,2013-01-10 19:25:00,
2013-01-10 14:30:00,41.6,34.9,30.36,East,98,4.7,6.0,77,0.00,BKN,,0.00,97.0,WeatherDisplay:10.37,2013-01-10 19:30:00,
2013-01-10 14:35:00,41.7,35.0,30.36,East,101,7.8,9.2,77,0.00,BKN,,0.00,123.0,WeatherDisplay:10.37,2013-01-10 19:35:00,
2013-01-10 14:41:00,41.8,34.8,30.36,ESE,123,5.4,6.9,76,0.00,BKN,,0.00,105.0,WeatherDisplay:10.37,2013-01-10 19:41:00,
2013-01-10 14:46:00,41.8,35.1,30.36,ESE,109,1.6,4.6,77,0.00,BKN,,0.00,74.0,WeatherDisplay:10.37,2013-01-10 19:46:00,
2013-01-10 14:51:00,41.8,34.8,30.35,East,92,4.6,9.2,76,0.00,BKN,,0.00,123.0,WeatherDisplay:10.37,2013-01-10 19:51:00,
2013-01-10 14:56:00,42.0,35.3,30.34,East,99,6.5,9.2,77,0.00,BKN,,0.00,104.0,WeatherDisplay:10.37,2013-01-10 19:56:00,
2013-01-10 15:01:00,42.1,35.4,30.34,East,101,4.3,9.2,77,0.00,BKN,,0.00,84.0,WeatherDisplay:10.37,2013-01-10 20:01:00,
2013-01-10 15:06:00,42.1,35.1,30.34,ESE,119,5.5,10.4,76,0.00,BKN,,0.00,56.0,WeatherDisplay:10.37,2013-01-10 20:06:00,
2013-01-10 15:11:00,42.1,35.1,30.35,SE,134,2.9,4.6,76,0.00,BKN,,0.00,56.0,WeatherDisplay:10.37,2013-01-10 20:11:00,
2013-01-10 15:16:00,42.0,35.3,30.35,ESE,112,2.4,5.0,77,0.00,BKN,,0.00,62.0,WeatherDisplay:10.37,2013-01-10 20:16:00,
2013-01-10 15:21:00,42.0,35.3,30.34,ESE,105,5.0,8.1,77,0.00,BKN,,0.00,40.0,WeatherDisplay:10.37,2013-01-10 20:21:00,
2013-01-10 15:26:00,42.0,35.3,30.35,East,85,4.5,7.0,77,0.00,BKN,,0.00,30.0,WeatherDisplay:10.37,2013-01-10 20:26:00,
2013-01-10 15:31:00,42.0,35.6,30.34,ESE,109,3.1,4.6,78,0.00,BKN,,0.00,26.0,WeatherDisplay:10.37,2013-01-10 20:31:00,
2013-01-10 15:36:00,41.9,35.5,30.34,SE,146,3.3,8.1,78,0.00,BKN,,0.00,32.0,WeatherDisplay:10.37,2013-01-10 20:36:00,
2013-01-10 15:41:00,41.9,35.9,30.34,East,99,4.8,6.9,79,0.00,BKN,,0.00,32.0,WeatherDisplay:10.37,2013-01-10 20:41:00,
2013-01-10 15:46:00,41.9,35.9,30.34,East,94,3.2,5.8,79,0.00,BKN,,0.00,35.0,WeatherDisplay:10.37,2013-01-10 20:46:00,
2013-01-10 15:51:00,41.9,35.9,30.34,East,96,3.3,6.9,79,0.00,BKN,,0.00,33.0,WeatherDisplay:10.37,2013-01-10 20:51:00,
2013-01-10 15:56:00,41.9,35.9,30.34,East,98,4.5,8.1,79,0.00,BKN,,0.00,26.0,WeatherDisplay:10.37,2013-01-10 20:56:00,
2013-01-10 16:01:00,41.9,35.9,30.34,East,93,3.0,7.0,79,0.00,BKN,,0.00,25.0,WeatherDisplay:10.37,2013-01-10 21:01:00,
2013-01-10 16:06:00,41.9,35.5,30.34,East,98,3.9,8.0,78,0.00,BKN,,0.00,18.0,WeatherDisplay:10.37,2013-01-10 21:06:00,
2013-01-10 16:11:00,41.9,35.9,30.34,East,95,2.9,5.8,79,0.00,BKN,,0.00,19.0,WeatherDisplay:10.37,2013-01-10 21:11:00,
2013-01-10 16:16:00,41.8,35.8,30.34,East,89,1.6,4.6,79,0.00,BKN,,0.00,19.0,WeatherDisplay:10.37,2013-01-10 21:16:00,
2013-01-10 16:21:00,41.8,35.8,30.33,East,90,3.1,6.9,79,0.00,BKN,,0.00,26.0,WeatherDisplay:10.37,2013-01-10 21:21:00,
2013-01-10 16:26:00,41.9,35.9,30.33,ESE,109,2.7,6.9,79,0.00,BKN,,0.00,25.0,WeatherDisplay:10.37,2013-01-10 21:26:00,
2013-01-10 16:31:00,41.9,35.9,30.33,ENE,72,2.1,3.5,79,0.00,BKN,,0.00,30.0,WeatherDisplay:10.37,2013-01-10 21:31:00,
2013-01-10 16:36:00,42.0,36.0,30.33,East,94,5.0,6.9,79,0.00,BKN,,0.00,25.0,WeatherDisplay:10.37,2013-01-10 21:36:00,
2013-01-10 16:41:00,41.9,35.9,30.33,ENE,63,4.1,5.8,79,0.00,BKN,,0.00,35.0,WeatherDisplay:10.37,2013-01-10 21:41:00,
2013-01-10 16:46:00,42.0,36.0,30.33,ENE,73,2.9,4.0,79,0.00,BKN,,0.00,25.0,WeatherDisplay:10.37,2013-01-10 21:46:00,
2013-01-10 16:51:00,42.0,36.0,30.32,ESE,115,2.4,4.6,79,0.00,BKN,,0.00,23.0,WeatherDisplay:10.37,2013-01-10 21:51:00,
2013-01-10 16:56:00,41.9,35.9,30.33,ESE,103,4.2,6.9,79,0.00,BKN,,0.00,16.0,WeatherDisplay:10.37,2013-01-10 21:56:00,
2013-01-10 17:01:00,41.9,35.9,30.33,ESE,114,1.9,3.5,79,0.00,BKN,,0.00,9.0,WeatherDisplay:10.37,2013-01-10 22:01:00,
2013-01-10 17:07:00,41.9,36.2,30.33,ESE,107,1.0,4.6,80,0.00,BKN,,0.00,5.0,WeatherDisplay:10.37,2013-01-10 22:07:00,
2013-01-10 17:12:00,41.8,36.4,30.33,ESE,103,1.9,2.3,81,0.00,,,0.00,0.0,WeatherDisplay:10.37,2013-01-10 22:12:00,
2013-01-10 17:17:00,41.8,36.4,30.32,ESE,115,1.2,2.3,81,0.00,,,0.00,0.0,WeatherDisplay:10.37,2013-01-10 22:17:00,
2013-01-10 17:22:00,41.6,36.2,30.32,ESE,123,1.3,3.5,81,0.00,,,0.00,0.0,WeatherDisplay:10.37,2013-01-10 22:22:00,
2013-01-10 17:27:00,41.5,36.7,30.31,East,97,4.4,6.9,83,0.00,,,0.00,0.0,WeatherDisplay:10.37,2013-01-10 22:27:00,
2013-01-10 17:32:00,41.4,36.9,30.31,ESE,104,2.9,3.5,84,0.00,,,0.00,0.0,WeatherDisplay:10.37,2013-01-10 22:32:00,
2013-01-10 17:37:00,41.3,37.1,30.31,East,90,1.9,3.5,85,0.00,,,0.00,0.0,WeatherDisplay:10.37,2013-01-10 22:37:00,
2013-01-10 17:42:00,41.1,37.2,30.31,ESE,104,2.2,4.6,86,0.00,,,0.00,0.0,WeatherDisplay:10.37,2013-01-10 22:42:00,
2013-01-10 17:47:00,41.0,37.1,30.30,ESE,104,2.2,6.9,86,0.01,RA,,0.01,0.0,WeatherDisplay:10.37,2013-01-10 22:47:00,
2013-01-10 17:52:00,40.9,37.3,30.29,East,101,4.5,6.9,87,0.01,RA,,0.01,0.0,WeatherDisplay:10.37,2013-01-10 22:52:00,
2013-01-10 17:57:00,40.8,37.2,30.30,ESE,113,1.6,3.5,87,0.01,,,0.01,0.0,WeatherDisplay:10.37,2013-01-10 22:57:00,
2013-01-10 18:02:00,40.8,37.5,30.30,East,87,3.9,6.9,88,0.01,,,0.01,0.0,WeatherDisplay:10.37,2013-01-10 23:02:00,
2013-01-10 18:08:00,40.7,37.7,30.29,ESE,102,4.2,5.8,89,0.02,RA,,0.02,0.0,WeatherDisplay:10.37,2013-01-10 23:08:00,
2013-01-10 18:13:00,40.6,37.6,30.30,ESE,107,2.1,3.5,89,0.02,RA,,0.02,0.0,WeatherDisplay:10.37,2013-01-10 23:13:00,
2013-01-10 18:18:00,40.5,37.8,30.30,ESE,107,1.4,2.3,90,0.02,,,0.03,0.0,WeatherDisplay:10.37,2013-01-10 23:18:00,
2013-01-10 18:23:00,40.5,38.1,30.30,ESE,107,1.0,3.5,91,0.04,RA,,0.04,0.0,WeatherDisplay:10.37,2013-01-10 23:23:00,
2013-01-10 18:28:00,40.4,38.0,30.29,East,98,2.2,4.6,91,0.04,RA,,0.04,0.0,WeatherDisplay:10.37,2013-01-10 23:28:00,
2013-01-10 18:33:00,40.2,38.1,30.29,ESE,102,3.1,4.6,92,0.04,,,0.04,0.0,WeatherDisplay:10.37,2013-01-10 23:33:00,
2013-01-10 18:38:00,40.1,38.0,30.28,ESE,108,4.3,6.9,92,0.04,,,0.04,0.0,WeatherDisplay:10.37,2013-01-10 23:38:00,
2013-01-10 18:43:00,40.1,38.2,30.28,East,87,3.6,5.8,93,0.04,,,0.04,0.0,WeatherDisplay:10.37,2013-01-10 23:43:00,
2013-01-10 18:48:00,40.0,38.1,30.27,East,92,4.9,8.1,93,0.03,,,0.04,0.0,WeatherDisplay:10.37,2013-01-10 23:48:00,
2013-01-10 18:53:00,40.0,38.1,30.27,ESE,113,4.3,8.0,93,0.03,,,0.04,0.0,WeatherDisplay:10.37,2013-01-10 23:53:00,
2013-01-10 18:58:00,40.0,38.1,30.26,ESE,108,3.7,8.1,93,0.03,,,0.04,0.0,WeatherDisplay:10.37,2013-01-10 23:58:00,
2013-01-10 19:03:00,40.1,38.2,30.26,ESE,103,4.1,5.8,93,0.03,,,0.04,0.0,WeatherDisplay:10.37,2013-01-11 00:03:00,
2013-01-10 19:08:00,40.1,38.2,30.26,East,92,0.8,3.5,93,0.02,,,0.04,0.0,WeatherDisplay:10.37,2013-01-11 00:08:00,
2013-01-10 19:13:00,40.2,38.3,30.26,ESE,108,2.6,4.6,93,0.02,,,0.04,0.0,WeatherDisplay:10.37,2013-01-11 00:13:00,
2013-01-10 19:18:00,40.3,38.4,30.26,ESE,105,2.9,3.5,93,0.01,,,0.04,0.0,WeatherDisplay:10.37,2013-01-11 00:18:00,
2013-01-10 19:23:00,40.3,38.4,30.26,East,96,4.3,7.0,93,0.00,,,0.04,0.0,WeatherDisplay:10.37,2013-01-11 00:23:00,
2013-01-10 19:28:00,40.3,38.4,30.25,ESE,107,4.1,4.6,93,0.00,,,0.04,0.0,WeatherDisplay:10.37,2013-01-11 00:28:00,
2013-01-10 19:33:00,40.3,38.4,30.25,ESE,111,5.0,5.8,93,0.00,,,0.05,0.0,WeatherDisplay:10.37,2013-01-11 00:33:00,
2013-01-10 19:38:00,40.3,38.4,30.25,East,100,4.4,7.0,93,0.01,RA,,0.05,0.0,WeatherDisplay:10.37,2013-01-11 00:38:00,
2013-01-10 19:44:00,40.3,38.4,30.24,East,97,5.9,5.9,93,0.01,RA,,0.05,0.0,WeatherDisplay:10.37,2013-01-11 00:44:00,
2013-01-10 19:49:00,40.3,38.4,30.24,East,101,4.8,6.9,93,0.01,,,0.05,0.0,WeatherDisplay:10.37,2013-01-11 00:49:00,
2013-01-10 19:54:00,40.3,38.4,30.23,ESE,103,5.5,8.1,93,0.01,,,0.05,0.0,WeatherDisplay:10.37,2013-01-11 00:54:00,
2013-01-10 19:59:00,40.3,38.4,30.22,East,84,4.7,6.9,93,0.01,,,0.05,0.0,WeatherDisplay:10.37,2013-01-11 00:59:00,
2013-01-10 20:04:00,40.3,38.4,30.22,East,96,7.1,9.2,93,0.01,,,0.05,0.0,WeatherDisplay:10.37,2013-01-11 01:04:00,
2013-01-10 20:09:00,40.4,38.5,30.22,East,101,5.1,6.9,93,0.01,,,0.05,0.0,WeatherDisplay:10.37,2013-01-11 01:09:00,
2013-01-10 20:14:00,40.4,38.5,30.21,East,100,5.8,9.2,93,0.01,,,0.05,0.0,WeatherDisplay:10.37,2013-01-11 01:14:00,
2013-01-10 20:19:00,40.4,38.5,30.21,ESE,106,5.0,5.0,93,0.01,,,0.05,0.0,WeatherDisplay:10.37,2013-01-11 01:19:00,
2013-01-10 20:24:00,40.5,38.6,30.21,ESE,114,6.6,9.2,93,0.01,,,0.05,0.0,WeatherDisplay:10.37,2013-01-11 01:24:00,
2013-01-10 20:29:00,40.5,38.6,30.21,East,99,4.3,8.1,93,0.01,,,0.05,0.0,WeatherDisplay:10.37,2013-01-11 01:29:00,
2013-01-10 20:34:00,40.5,38.4,30.20,East,93,4.9,9.0,92,0.00,,,0.05,0.0,WeatherDisplay:10.37,2013-01-11 01:34:00,
2013-01-10 20:39:00,40.6,38.5,30.20,ESE,122,5.4,9.2,92,0.00,,,0.05,0.0,WeatherDisplay:10.37,2013-01-11 01:39:00,
2013-01-10 20:44:00,40.6,38.5,30.20,ESE,107,4.1,8.1,92,0.00,,,0.05,0.0,WeatherDisplay:10.37,2013-01-11 01:44:00,
2013-01-10 20:49:00,40.7,38.6,30.19,East,94,4.6,8.1,92,0.00,,,0.05,0.0,WeatherDisplay:10.37,2013-01-11 01:49:00,
2013-01-10 20:54:00,40.7,38.3,30.19,ESE,102,4.9,8.1,91,0.00,,,0.05,0.0,WeatherDisplay:10.37,2013-01-11 01:54:00,
2013-01-10 20:59:00,40.8,38.4,30.19,East,98,4.9,8.1,91,0.00,,,0.05,0.0,WeatherDisplay:10.37,2013-01-11 01:59:00,
2013-01-10 21:04:00,40.8,38.4,30.18,ESE,109,5.4,6.9,91,0.00,,,0.05,0.0,WeatherDisplay:10.37,2013-01-11 02:04:00,
2013-01-10 21:09:00,40.9,38.5,30.18,ESE,106,4.6,8.1,91,0.00,,,0.05,0.0,WeatherDisplay:10.37,2013-01-11 02:09:00,
2013-01-10 21:14:00,40.9,38.2,30.18,ESE,103,3.1,6.9,90,0.00,,,0.05,0.0,WeatherDisplay:10.37,2013-01-11 02:14:00,
2013-01-10 21:19:00,41.0,38.3,30.18,East,95,4.4,5.8,90,0.00,,,0.05,0.0,WeatherDisplay:10.37,2013-01-11 02:19:00,
2013-01-10 21:24:00,41.0,39.7,30.18,East,96,3.1,7.0,95,0.00,,,0.05,0.0,WeatherDisplay:10.37,2013-01-11 02:24:00,
2013-01-10 21:29:00,41.0,38.3,30.17,ESE,105,4.4,6.9,90,0.00,,,0.05,0.0,WeatherDisplay:10.37,2013-01-11 02:29:00,
2013-01-10 21:34:00,41.0,38.0,30.17,ESE,113,2.2,5.8,89,0.00,,,0.05,0.0,WeatherDisplay:10.37,2013-01-11 02:34:00,
2013-01-10 21:39:00,41.2,38.2,30.17,ESE,105,3.2,5.8,89,0.00,,,0.05,0.0,WeatherDisplay:10.37,2013-01-11 02:39:00,
2013-01-10 21:44:00,41.3,38.0,30.16,ESE,107,4.1,6.9,88,0.00,,,0.05,0.0,WeatherDisplay:10.37,2013-01-11 02:44:00,
2013-01-10 21:49:00,41.5,38.2,30.16,East,96,3.6,6.9,88,0.00,,,0.05,0.0,WeatherDisplay:10.37,2013-01-11 02:49:00,
2013-01-10 21:54:00,41.7,38.1,30.16,ESE,117,3.1,3.5,87,0.00,,,0.05,0.0,WeatherDisplay:10.37,2013-01-11 02:54:00,
2013-01-10 21:59:00,41.8,38.2,30.16,ESE,104,3.0,4.6,87,0.00,,,0.05,0.0,WeatherDisplay:10.37,2013-01-11 02:59:00,
2013-01-10 22:05:00,42.0,38.1,30.15,ESE,119,2.9,7.0,86,0.00,,,0.05,0.0,WeatherDisplay:10.37,2013-01-11 03:05:00,
2013-01-10 22:10:00,42.2,38.3,30.15,ESE,110,2.6,5.0,86,0.00,,,0.05,0.0,WeatherDisplay:10.37,2013-01-11 03:10:00,
2013-01-10 22:15:00,42.3,38.1,30.15,East,92,5.5,9.2,85,0.00,,,0.05,0.0,WeatherDisplay:10.37,2013-01-11 03:15:00,
2013-01-10 22:20:00,42.5,38.0,30.15,SE,128,4.2,8.1,84,0.00,,,0.05,0.0,WeatherDisplay:10.37,2013-01-11 03:20:00,
2013-01-10 22:25:00,42.7,38.2,30.15,East,94,3.6,5.8,84,0.00,,,0.05,0.0,WeatherDisplay:10.37,2013-01-11 03:25:00,
2013-01-10 22:30:00,42.8,38.3,30.15,East,98,1.8,7.0,84,0.00,,,0.05,0.0,WeatherDisplay:10.37,2013-01-11 03:30:00,
2013-01-10 22:35:00,42.9,38.4,30.14,ESE,115,3.1,4.6,84,0.00,,,0.05,0.0,WeatherDisplay:10.37,2013-01-11 03:35:00,
2013-01-10 22:40:00,43.0,38.5,30.14,ESE,109,1.9,4.6,84,0.00,,,0.05,0.0,WeatherDisplay:10.37,2013-01-11 03:40:00,
2013-01-10 22:45:00,43.1,38.3,30.14,ESE,118,2.3,3.5,83,0.00,,,0.05,0.0,WeatherDisplay:10.37,2013-01-11 03:45:00,
2013-01-10 22:50:00,43.2,38.4,30.14,ESE,102,3.0,8.1,83,0.00,,,0.05,0.0,WeatherDisplay:10.37,2013-01-11 03:50:00,
2013-01-10 22:55:00,43.3,38.5,30.14,ESE,111,2.4,8.1,83,0.00,,,0.05,0.0,WeatherDisplay:10.37,2013-01-11 03:55:00,
2013-01-10 23:01:00,43.4,38.6,30.13,East,97,3.1,3.5,83,0.00,,,0.05,0.0,WeatherDisplay:10.37,2013-01-11 04:01:00,
2013-01-10 23:06:00,43.5,38.7,30.13,East,94,3.3,7.0,83,0.00,,,0.05,0.0,WeatherDisplay:10.37,2013-01-11 04:06:00,
2013-01-10 23:11:00,43.6,38.8,30.13,ESE,105,2.0,6.9,83,0.00,,,0.05,0.0,WeatherDisplay:10.37,2013-01-11 04:11:00,
2013-01-10 23:16:00,43.7,38.9,30.13,ESE,113,3.4,5.8,83,0.00,,,0.05,0.0,WeatherDisplay:10.37,2013-01-11 04:16:00,
2013-01-10 23:21:00,43.7,38.9,30.12,East,99,2.5,4.6,83,0.00,,,0.05,0.0,WeatherDisplay:10.37,2013-01-11 04:21:00,
2013-01-10 23:26:00,43.8,39.0,30.12,East,97,2.7,5.8,83,0.00,,,0.05,0.0,WeatherDisplay:10.37,2013-01-11 04:26:00,
2013-01-10 23:31:00,43.8,39.0,30.12,East,101,2.5,3.0,83,0.00,,,0.05,0.0,WeatherDisplay:10.37,2013-01-11 04:31:00,
2013-01-10 23:36:00,43.8,39.0,30.12,ESE,103,1.6,3.0,83,0.00,,,0.05,0.0,WeatherDisplay:10.37,2013-01-11 04:36:00,
2013-01-10 23:41:00,43.8,39.0,30.12,East,100,3.1,5.0,83,0.00,,,0.05,0.0,WeatherDisplay:10.37,2013-01-11 04:41:00,
2013-01-10 23:46:00,43.8,39.3,30.11,ESE,105,1.9,5.8,84,0.00,,,0.05,0.0,WeatherDisplay:10.37,2013-01-11 04:46:00,
2013-01-10 23:51:00,43.9,39.4,30.11,East,86,2.3,6.9,84,0.00,,,0.05,0.0,WeatherDisplay:10.37,2013-01-11 04:51:00,
2013-01-10 23:57:00,43.9,39.4,30.11,East,99,2.0,5.8,84,0.00,,,0.05,0.0,WeatherDisplay:10.37,2013-01-11 04:57:00,